Location: Sevilla
(37.3933°N, 5.9839°W)
Time: 04:24:03
(UTC+02:00)

Transit 2A Rocket - Pass Details

Date: 29 June 2024
Orbit: 582 x 910 km, 66.7° (Epoch: 13 July)

Event Time Altitude Azimuth Distance (km) Brightness Sun altitude
Rises 05:01:52 0° 340° (NNW) 3,524 8.9 -19.4°
Reaches altitude 10° 05:04:42 10° 351° (N) 2,596 8.3 -19.0°
Maximum altitude 05:10:02 31° 52° (NE) 1,543 7.3 -18.4°
Drops below altitude 10° 05:15:18 10° 113° (ESE) 2,558 7.9 -17.7°
Sets 05:18:03 0° 124° (ESE) 3,465 8.5 -17.3°
